(503578) = 2012 PW10 = 2016 GS48

Discovered at Mount Lemmon on 2011-04-30 by Mt. Lemmon Survey.

Orbit

Orbit type: Main Belt

Note: WebGL enabled browser required.

epoch2023-09-13.0
epoch JD2460200.5
perihelion date2022-01-23.67108
perihelion JD2459603.17108
argument of perihelion (°)325.84001
ascending node (°)273.43737
inclination (°)1.21312
eccentricity0.1850759
perihelion distance (AU)2.4894998
Tisserand w.r.t. Jupiter3.2
ΔV w.r.t. Earth (km/sec)9.9
semimajor axis (AU)3.0548853
mean anomaly (°)110.26178
mean daily motion (°/day)0.18459140
aphelion distance (AU)3.620
period (years)5.34
P-vector [x]-0.51075682
P-vector [y]-0.78397834
P-vector [z]-0.35285327
Q-vector [x]0.85946544
Q-vector [y]-0.47570426
Q-vector [z]-0.18714863
absolute magnitude17.29
phase slope0.15
uncertainty0
referenceMPEC 2023-R158
observations used75
oppositions8
arc length (days)6758
first opposition used2005
last opposition used2023
residual rms (arc-secs)0.34
perturbers coarse indicatorM-v
perturbers precise indicator003Ek
first observation date used2005-03-11.0
last observation date used2023-09-11.0
computer nameMPCLINUX
JD of orbit computation2458011.214597
perihelion JD uncertainty (days)6.7143E-05
argument of perihelion uncertainty (°)2.0217E-04
ascending node uncertainty (°)2.0179E-04
inclination uncertainty (°)2.0657E-06
eccentricity uncertainty 2.6369E-08
perihelion distance uncertainty (AU)8.5806E-08
Minimum Orbit Intersection Distances (in AU)
for orbit epoch: 2460200.5, reference: E2023-RF8
Mercury2.02691
Venus1.76508
Earth1.47653
Mars0.93526
Jupiter1.3915
Saturn5.47444
Uranus15.3973
Neptune26.2588

Observations

75 total observations over interval: 2005 03 11.28123 – 2023 09 11.410588
These data are available for download (format description).

Date (UT) J2000 RA J2000 Dec Magn Location Ref
2005 03 11.28123 10 09 02.45 +09 39 32.4 19.7 R G96 – Mt. Lemmon Survey MPS 870059
2005 03 11.28784 10 09 02.16 +09 39 33.8 20.4 R G96 – Mt. Lemmon Survey MPS 870059
2005 03 11.29446 10 09 01.78 +09 39 34.9 20.6 R G96 – Mt. Lemmon Survey MPS 870059
2011 04 30.37062 15 47 19.75 -21 20 13.6 20.5 V G96 – Mt. Lemmon Survey MPS 815719
2011 04 30.37995 15 47 19.32 -21 20 12.3 20.4 V G96 – Mt. Lemmon Survey MPS 815719
2011 04 30.38926 15 47 18.96 -21 20 11.1 20.3 V G96 – Mt. Lemmon Survey MPS 815719
2011 04 30.39852 15 47 18.56 -21 20 10.3 20.3 V G96 – Mt. Lemmon Survey MPS 815719
2011 05 22.24733 15 30 21.81 -20 15 57.4 20.9 V G96 – Mt. Lemmon Survey MPS 815719
2011 05 22.25479 15 30 21.45 -20 15 56.7 19.8 V G96 – Mt. Lemmon Survey MPS 815719
2011 05 22.26267 15 30 21.02 -20 15 54.2 19.9 V G96 – Mt. Lemmon Survey MPS 815719
2011 05 22.27010 15 30 20.66 -20 15 53.3 20.4 V G96 – Mt. Lemmon Survey MPS 815719
2012 08 09.53593 23 33 47.150 -01 06 31.99 22.0 i F51 – Pan-STARRS 1, Haleakala MPS 429431
2012 08 09.53893 23 33 47.044 -01 06 32.39 22.0 i F51 – Pan-STARRS 1, Haleakala MPS 429431
2012 08 09.54193 23 33 46.959 -01 06 33.14 22.0 i F51 – Pan-STARRS 1, Haleakala MPS 429431
2012 08 09.54794 23 33 46.799 -01 06 33.85 22.1 i F51 – Pan-STARRS 1, Haleakala MPS 429431
2012 08 09.55094 23 33 46.694 -01 06 34.38 22.1 i F51 – Pan-STARRS 1, Haleakala MPS 429431
2012 08 12.58139 23 32 17.565 -01 14 43.11 22.2 i F51 – Pan-STARRS 1, Haleakala MPS 429431
2012 08 12.58435 23 32 17.489 -01 14 43.79 22.2 i F51 – Pan-STARRS 1, Haleakala MPS 429431
2012 08 12.58730 23 32 17.374 -01 14 44.18 22.1 i F51 – Pan-STARRS 1, Haleakala MPS 429431
2012 08 12.59026 23 32 17.284 -01 14 44.71 21.8 i F51 – Pan-STARRS 1, Haleakala MPS 429431
2012 08 12.59321 23 32 17.191 -01 14 45.31 22.0 i F51 – Pan-STARRS 1, Haleakala MPS 429431
2012 08 12.59617 23 32 17.092 -01 14 45.73 21.8 i F51 – Pan-STARRS 1, Haleakala MPS 429431
2012 08 12.59912 23 32 16.996 -01 14 46.22 21.9 i F51 – Pan-STARRS 1, Haleakala MPS 429431
2015 01 20.28794 06 58 00.760 +22 20 59.51 22.2 w F51 – Pan-STARRS 1, Haleakala MPS 815719
2015 01 20.29867 06 58 00.235 +22 20 59.92 22.2 w F51 – Pan-STARRS 1, Haleakala MPS 815719
2015 01 20.30959 06 57 59.633 +22 21 00.56 22.0 w F51 – Pan-STARRS 1, Haleakala MPS 815719
2016 03 12.45182 13 00 10.751 -08 27 10.30 21.2 w F51 – Pan-STARRS 1, Haleakala MPS 699076
2016 03 12.46500 13 00 10.298 -08 27 08.12 21.3 w F51 – Pan-STARRS 1, Haleakala MPS 699076
2016 03 12.47817 13 00 09.839 -08 27 05.71 21.1 w F51 – Pan-STARRS 1, Haleakala MPS 699076
2016 03 12.49136 13 00 09.382 -08 27 03.33 21.4 w F51 – Pan-STARRS 1, Haleakala MPS 699076
2016 03 12.49464 13 00 09.264 -08 27 02.76 21.1 w F51 – Pan-STARRS 1, Haleakala MPS 699076
2016 03 12.50733 13 00 08.823 -08 27 00.46 21.3 w F51 – Pan-STARRS 1, Haleakala MPS 699076
2016 03 12.51998 13 00 08.378 -08 26 58.31 21.1 w F51 – Pan-STARRS 1, Haleakala MPS 699076
2016 03 12.53264 13 00 07.924 -08 26 55.91 21.2 w F51 – Pan-STARRS 1, Haleakala MPS 699076
2016 03 19.35295 12 55 58.79 -08 03 36.1 20.9 V G96 – Mt. Lemmon Survey MPS 699076
2016 03 19.35926 12 55 58.48 -08 03 35.0 20.9 V G96 – Mt. Lemmon Survey MPS 699076
2016 03 19.36556 12 55 58.18 -08 03 32.4 20.1 V G96 – Mt. Lemmon Survey MPS 699076
2016 03 19.37187 12 55 58.00 -08 03 31.6 20.9 V G96 – Mt. Lemmon Survey MPS 699076
2016 03 28.32703 12 49 33.34 -07 25 14.2 20.6 V G96 – Mt. Lemmon Survey MPS 699076
2016 03 28.33223 12 49 33.11 -07 25 12.3 20.6 V G96 – Mt. Lemmon Survey MPS 699076
2016 03 28.33742 12 49 32.86 -07 25 11.2 20.6 V G96 – Mt. Lemmon Survey MPS 699076
2016 03 28.34261 12 49 32.61 -07 25 09.8 20.6 V G96 – Mt. Lemmon Survey MPS 699076
2016 04 01.37133 12 46 27.347 -07 05 55.33 20.5 w F51 – Pan-STARRS 1, Haleakala MPS 699076
2016 04 01.38363 12 46 26.750 -07 05 51.85 20.4 w F51 – Pan-STARRS 1, Haleakala MPS 699076
2016 04 01.39594 12 46 26.155 -07 05 48.34 20.6 w F51 – Pan-STARRS 1, Haleakala MPS 699076
2016 04 01.40830 12 46 25.551 -07 05 44.64 20.6 w F51 – Pan-STARRS 1, Haleakala MPS 699076
2016 04 02.37578 12 45 40.598 -07 01 00.29 20.5 w F51 – Pan-STARRS 1, Haleakala MPS 699076
2016 04 02.38746 12 45 40.027 -07 00 56.83 20.5 w F51 – Pan-STARRS 1, Haleakala MPS 699076
2016 04 02.39913 12 45 39.456 -07 00 53.35 20.4 w F51 – Pan-STARRS 1, Haleakala MPS 699076
2016 04 02.41082 12 45 38.887 -07 00 49.93 20.5 w F51 – Pan-STARRS 1, Haleakala MPS 699076
2016 04 10.45247 12 39 27.133 -06 20 41.56 20.6 w F51 – Pan-STARRS 1, Haleakala MPS 701353
2016 04 10.46553 12 39 26.511 -06 20 37.47 20.7 w F51 – Pan-STARRS 1, Haleakala MPS 701353
2016 04 10.47879 12 39 25.885 -06 20 33.65 20.5 w F51 – Pan-STARRS 1, Haleakala MPS 701353
2016 04 10.49195 12 39 25.271 -06 20 29.73 20.8 w F51 – Pan-STARRS 1, Haleakala MPS 701353
2016 04 26.20986 12 29 05.51 -05 08 32.8 22.0 V G96 – Mt. Lemmon Survey MPS 704575
2016 04 26.21395 12 29 05.37 -05 08 31.9 20.6 V G96 – Mt. Lemmon Survey MPS 704575
2016 04 26.21803 12 29 05.25 -05 08 31.2 21.6 V G96 – Mt. Lemmon Survey MPS 704575
2016 04 26.22212 12 29 05.08 -05 08 30.1 20.9 V G96 – Mt. Lemmon Survey MPS 704575
2017 08 15.41013 21 22 00.718 -13 59 36.24 21.2 i F51 – Pan-STARRS 1, Haleakala MPS 815719
2017 08 15.42185 21 22 00.114 -13 59 38.29 21.2 i F51 – Pan-STARRS 1, Haleakala MPS 815719
2017 08 15.43358 21 21 59.532 -13 59 41.12 20.9 i F51 – Pan-STARRS 1, Haleakala MPS 815719
2017 08 15.44530 21 21 58.921 -13 59 43.51 21.1 i F51 – Pan-STARRS 1, Haleakala MPS 815719
2017 08 19.40071 21 18 51.266 -14 13 34.96 21.1 w F51 – Pan-STARRS 1, Haleakala MPS 812122
2017 08 19.41547 21 18 50.554 -14 13 37.99 21.0 w F51 – Pan-STARRS 1, Haleakala MPS 812122
2017 08 19.43022 21 18 49.845 -14 13 41.06 20.9 w F51 – Pan-STARRS 1, Haleakala MPS 812122
2021 02 06.340442 10 47 49.66 +05 59 00.3 21.03 G G96 – Mt. Lemmon Survey MPS 1372085
2021 02 06.345596 10 47 49.43 +05 59 00.4 21.14 G G96 – Mt. Lemmon Survey MPS 1372085
2021 02 06.350745 10 47 49.25 +05 59 02.5 21.07 G G96 – Mt. Lemmon Survey MPS 1372085
2021 02 06.355901 10 47 49.03 +05 59 03.1 21.33 G G96 – Mt. Lemmon Survey MPS 1372085
2021 02 07.45676 10 47 07.742 +06 02 41.85 21.3 w F51 – Pan-STARRS 1, Haleakala MPS 1372085
2021 02 07.46873 10 47 07.271 +06 02 44.18 21.4 w F51 – Pan-STARRS 1, Haleakala MPS 1372085
2021 02 07.48080 10 47 06.787 +06 02 46.53 21.3 w F51 – Pan-STARRS 1, Haleakala MPS 1372085
2023 09 11.388942 00 54 02.712 +07 36 06.68 21.83 w F52 – Pan-STARRS 2, Haleakala MPS 1967684
2023 09 11.399747 00 54 02.327 +07 36 04.20 22.07 w F52 – Pan-STARRS 2, Haleakala MPS 1967684
2023 09 11.410588 00 54 01.931 +07 36 01.87 22.06 w F52 – Pan-STARRS 2, Haleakala MPS 1967684